Showing default

ORBCOMM FM 19, 25415

Orbit data source: Space-Track

ORBCOMM FM 19, 25415 is a payload satellite owned by Orbcomm (US) in LEO that was launched on Sun, 02 Aug 1998 UTC via a PEGASUS XL/HAPS launch vehicle from the Pegasus Launch, Eastern Range Air Space (ERAS). Payload-class satellites include a variety of spacecraft equipped with specific instruments for various scientific and technological missions. These include communications satellites like Starlink; space stations such as the ISS; scientific satellites like the Hubble; Earth observation satellites from companies like Planet Labs, Umbra, and HawkEye 360; GPS; miniature CubeSats for education and research; and military/defense satellites.

Loading next visibility...
Identifier
25415, 1998-046C
Orbit
LEO
Country
Flag of USUS / ORB
Related business
Manufacturer
OSC-Germantown
Mission
Operational Commercial Communications
Bus & Motor
MICROSTAR, Unknown motor
Mass
42 kg wet, 42 kg dry
Launch date (UTC)
1998-08-02 (27 years ago)
Launch vehicle
PEGASUS XL/HAPS
Launch site
Pegasus Launch, Eastern Range Air Space (ERAS)
Object type
Payload
Rocket body
Debris
Shape & HBR
Cyl + 2 Pan, 2.1 m
Radar Cross Section
1.484 m², Medium (>0.1 m² and < 1m²)

Expand to show TLE details & history
Last TLE update: 8 hours ago

TLE from 8 hours ago
0 ORBCOMM FM 19
1 25415U 98046C   25243.54639154  .00002203  00000-0  75992-3 0  9999
2 25415  44.9934 179.4067 0005198 308.1261 221.7032 14.38532049415051
Epoch: 2025-08-31T13:06Z
TLE epoch observation values (Epoch: 2025-08-31T13:06:48.229Z)
Latitude
7.18209°
Longitude
175.53892°
Altitude
765.478 km
Speed
7.472 km/s
True Right ascension
23h 28m 49s
True Declination
7° 08' 23"
Sunlit
Object was in full shadow at epoch
Visualization orbit readout
Latitude
Unknown
Longitude
Unknown
Altitude
Unknown
Speed
Unknown
Apparent Right ascension
Unknown
Apparent Declination
Unknown
Sunlit
N/A
Visualization observer readout
Local Sidereal Time
12:36:10
Azimuth
Unknown
Elevation
Unknown
Doppler factor
Unknown
Orbital elements
Apogee altitude
768.613 km
Perigee altitude
761.187 km
Semi-major axis
7,143.037 km
Eccentricity
0.00052
Inclination
44.9934°
RAAN
179.4067°
Arg. of periapsis
308.1261°
True anomaly
221.66359°
Mean anomaly
221.7032°
Eccentric anomaly
221.68339°
Mean motion
3.59516 °/min
Orbital period
100.13 mins
BSTAR
0.00075992
Loading maneuver chart data...
Computing Atmospheric mass density...

Documentation

Showing up to 5 results
|